レナード彗星

C/2022 W3 ( Leonard )

English version
Home page
Updated on October 12, 2023

---------------------------------------------------------------------

・ プロフィール

発見日 2022年11月26日
発見光度 19.7等
発見者 Gregory J. Leonard (Mount Lemmon Survey)

・ 写真集

・ 軌道要素

Epoch 2023 Sept. 13.0 TT = JDT 2460200.5
T 2023 June 22.77828 TT                                 Rudenko
q   1.3977331            (2000.0)            P               Q
z  +0.0035480      Peri.  116.52391     +0.45558574     +0.52435207
 +/-0.0000009      Node   132.26917     -0.51974250     -0.49939008
e   0.9950408      Incl.  103.55781     +0.72270974     -0.68968432
>From 899 observations 2022 Nov. 13-2023 Sept. 7, mean residual 0".8.

・ 星図

・ 光度変化

        m1 = 12.0 + 5 logΔ + 10.0 log r

---------------------------------------------------------------------

軌道要素はM.P.E.C. 2023-S260に掲載されたものです。
星図はステラナビゲータ Ver.10 (アストロアーツ) で作成したものです。
光度グラフはComet for Windowsで作成したものです。

---------------------------------------------------------------------

Copyright(C) Seiichi Yoshida (comet@aerith.net). All rights reserved.